Location: Petruro
(41.0333°N, 14.7833°E)
Time: 14:58:52
(UTC+00:00)

DELTA 2 R/B (1) - Pass Details

Date: 25 October 2021
Orbit: 791 x 802 km, 39.6° (Epoch: 04 December)

Event Time Altitude Azimuth Distance (km) Brightness Sun altitude
Rises 19:17:48 0° 234° (SW) 3,291 7.2 -36.6°
Reaches altitude 10° 19:20:23 10° 228° (SW) 2,361 6.3 -37.1°
Enters shadow 19:20:45 12° 227° (SW) 2,230 6.1 -37.2°
